EHI
45 44 42 40 37 35 32 29 30 32 32 29 25 23 21 21 21 19 17 17 14 10 7 7 7 7 7 7 7 7 9 7 4 3 5 7 8 7 5 4 3 2 2
50 47 43 38 35 33 31 29 30 32 32 28 25 23 23 23 22 20 18 17 16 12 10 9 8 7 7 8 7 8 10 9 5 4 5 7 8 7 6 5 4 2 2
53 52 48 42 37 34 32 32 34 35 33 29 27 27 27 26 25 22 21 20 18 15 12 10 9 8 8 8 8 9 10 10 8 5 5 6 7 6 6 6 4 3 3
58 58 56 52 46 41 37 38 40 38 35 34 31 29 29 28 26 26 25 23 20 17 14 11 10 9 9 9 9 9 9 10 9 7 5 5 6 5 5 6 5 5 5
64 64 64 60 56 51 47 46 45 41 39 39 35 32 30 27 25 26 26 23 19 17 15 12 10 10 9 9 8 8 8 9 9 8 6 5 4 4 5 6 6 6 7
66 68 66 63 60 58 55 53 50 46 45 44 41 38 32 26 21 19 20 21 21 19 15 12 10 9 9 8 6 6 7 7 7 7 8 7 5 5 6 6 6 7 7
63 64 63 59 57 56 54 53 51 49 49 49 47 42 35 25 16 10 11 17 22 21 17 15 12 11 10 8 7 6 5 5 5 6 8 9 8 7 6 6 6 6 6
57 57 55 53 52 51 49 49 50 50 50 50 47 43 37 26 13 6 7 14 20 19 18 17 16 14 11 9 8 7 5 4 3 4 7 8 7 6 6 6 6 6 6
52 51 51 50 50 49 46 46 48 49 48 45 42 42 38 27 14 5 6 13 17 17 16 15 16 15 11 7 7 8 8 6 4 3 3 4 3 3 3 4 5 5 5
50 49 50 50 49 48 45 43 45 46 45 41 39 41 40 29 14 5 6 12 16 16 15 14 14 13 9 5 6 9 10 8 6 4 2 2 2 1 1 2 3 3 4
51 49 48 47 45 43 42 42 43 44 44 42 41 42 42 31 15 5 4 8 12 14 15 16 14 10 6 3 4 7 7 7 7 5 4 4 4 3 2 2 2 2 2
49 46 43 41 38 38 40 42 43 45 45 44 43 44 43 32 16 5 2 3 6 9 13 14 11 5 2 1 2 4 4 4 5 5 4 5 5 4 2 1 1 1 1
42 41 37 34 33 34 37 39 41 43 42 40 40 41 39 32 19 8 3 1 1 4 6 6 4 2 0 0 1 1 2 3 4 3 3 3 4 3 2 0 0 0 0
35 34 32 28 27 29 32 33 34 35 35 34 35 36 34 29 21 12 6 2 1 2 3 3 3 2 1 0 0 1 1 2 2 1 1 2 3 3 2 1 0 0 0
31 29 26 25 24 25 26 24 24 24 23 24 26 28 27 23 16 10 6 4 3 2 4 7 8 7 5 4 3 3 2 1 1 1 1 2 3 3 3 2 1 0 0
27 24 22 22 23 23 22 18 16 13 11 11 13 16 16 12 8 4 3 3 3 3 5 9 12 12 10 9 8 6 4 3 3 3 3 3 3 3 3 3 3 2 1
22 20 20 20 20 20 19 16 13 9 6 4 4 5 5 3 2 1 0 1 1 1 4 9 12 13 12 11 9 7 6 6 6 5 4 3 4 3 3 3 4 3 2
18 18 19 19 18 17 17 16 14 12 9 7 4 2 1 0 0 0 0 0 1 2 4 7 10 12 12 11 9 8 8 8 9 8 6 4 4 3 2 2 3 3 2
17 17 17 16 15 14 15 15 15 14 13 11 7 3 0 0 0 0 0 1 4 6 6 6 8 10 12 13 12 11 11 11 11 10 8 6 4 3 1 1 1 1 1
15 14 13 11 10 11 14 16 15 14 13 12 10 6 2 1 1 0 0 2 6 7 6 6 7 8 11 13 13 12 12 12 11 10 9 6 4 2 1 0 0 0 0
11 10 10 10 9 12 15 17 16 14 12 11 11 8 3 2 3 3 3 5 7 7 7 7 6 7 9 11 11 10 10 9 8 8 7 6 5 2 0 0 0 0 0
10 10 10 12 14 17 18 17 15 13 11 11 11 8 6 6 7 7 7 8 9 9 9 8 7 6 7 8 8 7 6 5 5 6 6 6 5 2 0 0 0 0 0
10 10 9 12 17 20 18 17 16 14 12 11 11 11 11 10 9 8 7 8 9 10 10 9 8 7 5 5 5 4 3 3 4 5 6 6 6 4 1 0 0 0 0
10 8 7 9 14 16 16 16 17 15 13 13 13 13 12 10 8 6 5 5 6 7 8 8 8 6 4 3 3 2 2 3 4 5 6 6 5 4 1 0 0 0 0
8 7 7 7 9 11 13 13 13 12 11 11 11 10 8 7 6 5 4 4 4 5 6 5 5 4 3 2 1 1 1 1 2 4 5 5 3 2 1 0 0 0 0
6 7 7 7 7 9 10 9 9 8 7 7 8 7 6 6 5 6 6 4 3 4 5 4 3 3 2 1 0 0 0 0 0 1 3 4 2 1 0 0 0 0 0
Wind_Speed
8 6 5 6 5 4 3 3 2 2 2 2 1 1 1 1 1 0 1 0 1 1 1 1 1 1 0 0 1 1 1 2 2 2 2 3 4 3 4 4 4 4 4
8 7 6 6 6 5 4 4 4 3 3 2 2 1 1 1 1 0 0 1 0 0 0 1 1 1 1 0 0 0 1 2 3 3 3 3 3 4 4 4 4 4 4
10 9 7 6 6 5 4 4 4 3 3 2 2 2 1 1 1 0 1 1 0 1 1 1 1 1 1 1 0 1 1 2 3 3 3 2 2 3 3 2 3 3 4
10 9 8 7 6 5 4 4 4 4 3 3 2 2 2 1 0 0 0 1 1 1 1 1 2 1 1 1 0 1 1 2 3 3 3 3 2 3 2 2 2 2 2
7 8 8 7 6 5 5 4 4 4 5 3 3 2 2 2 1 1 1 2 1 1 1 1 3 4 4 2 1 1 1 1 2 2 3 3 2 3 3 2 2 2 2
6 6 6 6 6 6 5 5 4 4 4 3 3 3 3 1 2 3 1 1 1 1 1 1 3 3 4 4 4 3 1 1 1 2 2 3 3 3 2 2 2 2 2
5 5 5 6 6 5 6 5 4 4 4 4 3 3 3 3 4 3 2 1 1 1 1 1 1 2 3 2 3 3 2 2 2 2 2 2 3 3 3 3 3 3 2
6 5 4 5 5 4 4 4 4 4 3 3 3 3 3 3 4 3 1 2 2 1 1 1 1 2 2 1 2 2 1 0 0 1 1 1 2 1 2 2 2 2 2
5 5 5 5 5 5 4 4 4 4 4 4 3 3 3 3 4 4 2 2 2 2 2 1 1 2 3 2 1 1 1 1 1 2 2 1 2 3 2 1 1 2 2
5 5 5 5 5 5 5 4 4 4 4 4 3 3 3 3 4 4 3 3 3 3 2 2 2 2 3 3 2 2 2 2 2 2 2 2 3 4 5 4 3 2 2
3 3 3 3 3 4 4 3 3 4 4 4 3 3 4 4 6 6 5 2 2 2 2 2 3 5 4 4 3 2 3 2 2 3 3 3 3 3 4 4 4 3 3
3 3 3 3 3 3 3 3 3 3 3 4 3 3 3 4 5 6 6 4 2 2 2 0 2 5 5 5 4 3 3 2 2 2 3 3 3 3 3 3 3 3 3
3 2 2 2 2 3 4 4 3 3 3 3 3 3 3 2 3 5 6 6 5 3 2 1 2 4 4 4 6 5 4 3 3 3 3 3 3 3 2 2 2 3 3
3 2 2 2 2 2 2 3 3 3 3 3 3 2 2 2 2 2 3 3 3 3 2 1 3 4 4 3 3 4 4 4 3 3 3 2 2 2 3 3 3 3 3
3 3 3 3 3 2 2 1 2 1 2 2 2 2 2 2 2 3 3 2 3 2 2 2 3 3 3 3 3 3 4 4 4 3 3 3 2 2 3 3 3 3 4
3 3 3 3 3 3 3 2 3 1 2 3 2 2 1 2 5 5 4 3 2 3 2 3 4 4 4 4 4 4 4 4 4 4 4 3 3 3 3 3 3 4 4
2 2 2 3 3 3 3 4 3 1 1 2 2 3 3 5 6 5 4 3 3 4 3 4 4 3 3 4 4 4 4 4 4 4 4 4 4 3 3 3 3 4 4
2 2 3 2 3 3 3 3 4 4 4 3 2 4 5 6 6 5 4 3 2 4 4 5 4 3 4 4 4 4 3 3 3 4 4 3 3 3 3 3 4 5 5
2 2 2 2 3 3 3 3 3 3 3 3 3 3 4 4 4 4 5 4 4 5 5 5 4 4 4 4 4 3 3 3 3 3 4 4 3 4 4 4 4 6 5
2 3 3 3 3 2 2 2 2 2 2 2 2 3 3 3 2 3 5 5 5 5 5 5 4 4 4 3 3 3 3 3 3 4 3 3 3 4 5 5 5 4 4
2 3 4 3 3 2 2 2 2 2 2 2 1 2 5 4 4 5 5 5 5 5 5 5 4 3 3 3 3 3 4 3 3 3 3 3 3 3 4 4 4 4 3
2 2 2 3 2 2 2 2 2 2 2 2 1 3 5 4 3 3 4 4 5 4 4 4 4 3 2 2 2 2 2 2 2 2 3 3 3 4 4 4 4 4 4
3 2 2 2 2 1 2 3 3 2 2 2 2 2 3 3 3 3 3 3 2 3 3 3 3 2 2 1 1 1 1 2 2 2 3 3 3 3 3 4 5 5 5
3 3 2 2 2 2 2 2 2 2 2 2 2 2 2 2 3 3 3 3 2 2 2 2 2 2 2 1 1 1 1 2 2 2 3 3 4 4 3 4 4 5 5
3 2 1 1 1 1 2 2 2 2 2 2 2 2 2 2 2 2 2 2 2 1 2 2 2 2 1 1 1 1 0 1 1 3 3 3 4 4 4 4 4 5 4
2 1 1 1 1 1 2 1 1 1 1 1 2 2 2 2 1 1 1 1 2 2 2 2 3 2 1 1 1 0 0 1 2 3 3 3 4 3 3 3 4 4 3
Wind_Direction
172 172 169 166 174 172 172 171 159 143 143 149 163 163 151 129 131 166 192 138 158 187 210 172 174 154 156 223 196 215 170 142 137 134 132 138 140 137 142 149 160 156 152
171 167 172 167 164 174 177 173 163 161 164 168 180 179 173 148 141 146 150 103 156 208 223 158 161 149 146 322 337 114 122 140 143 145 142 147 150 154 164 175 173 161 155
170 169 171 174 174 174 168 169 165 167 172 175 177 175 173 167 159 144 124 107 92 104 103 151 135 135 138 95 17 102 134 138 136 147 154 157 157 167 163 183 165 152 159
169 170 170 176 175 172 171 170 168 171 175 183 183 175 181 166 117 9 152 134 103 84 73 69 79 88 91 87 139 115 128 131 144 156 153 158 164 167 161 181 172 182 170
163 167 170 172 171 170 172 173 176 182 185 181 177 175 176 172 169 157 203 150 139 131 106 92 85 87 78 61 72 80 117 138 159 153 155 157 162 171 190 193 180 189 195
161 170 167 167 171 175 173 174 179 182 180 179 177 175 188 186 104 99 73 110 121 144 146 130 128 120 105 93 84 80 93 165 174 168 172 168 173 186 186 198 187 197 213
167 169 166 168 174 178 181 177 180 182 180 182 182 167 150 125 124 111 95 192 176 175 172 181 213 124 132 127 114 107 92 128 172 185 176 177 178 190 190 207 209 213 223
165 169 169 173 175 174 175 177 181 182 181 188 187 172 165 164 166 155 167 223 200 181 182 163 138 130 130 114 167 164 178 118 210 176 145 168 167 169 204 218 221 221 226
165 167 176 177 176 179 185 185 183 179 182 190 183 182 176 168 183 177 186 218 201 201 196 189 169 135 121 107 167 180 188 204 148 113 124 145 174 177 184 223 241 226 240
173 174 176 176 179 180 182 188 182 181 188 193 190 185 171 163 180 183 199 234 213 201 195 175 150 146 154 165 216 217 218 223 204 189 208 214 210 204 199 207 221 230 246
153 157 159 160 167 172 171 180 185 192 190 193 186 186 179 172 180 188 190 231 251 237 207 194 169 166 183 200 227 242 229 244 243 222 217 212 209 211 204 209 210 215 237
131 140 153 157 182 168 152 164 178 189 190 200 198 202 191 171 176 185 191 215 255 285 277 219 157 173 194 211 223 228 229 246 246 240 229 221 211 214 213 210 208 215 220
124 135 145 161 181 154 166 176 186 191 202 206 201 204 195 177 170 180 195 218 231 255 302 48 157 188 203 220 222 223 224 232 240 247 243 231 222 215 203 203 214 226 238
142 151 165 184 179 160 175 186 198 193 203 212 214 203 187 174 163 169 188 204 212 222 253 195 187 208 230 236 220 217 224 233 232 239 255 251 220 204 207 209 218 217 224
162 173 191 201 184 171 181 179 200 176 196 214 225 205 211 198 177 172 189 202 213 205 200 205 209 205 218 224 222 218 221 229 235 243 254 260 246 223 220 221 224 227 226
176 192 200 198 184 185 180 154 47 74 133 122 112 154 163 158 159 160 169 184 199 175 192 221 222 216 223 225 225 225 220 222 228 228 235 242 246 242 231 223 222 227 234
191 211 220 216 197 196 195 193 183 144 82 118 137 141 156 162 167 170 181 194 196 176 208 233 235 230 235 238 234 235 231 221 220 225 229 236 241 247 246 236 230 233 237
209 221 243 227 214 214 209 212 205 198 196 199 189 185 176 179 180 175 171 166 204 207 228 239 240 239 240 243 244 245 241 231 223 229 232 237 242 248 251 244 237 238 242
229 231 244 251 234 223 217 223 229 222 212 203 179 177 198 184 176 179 179 212 230 231 237 242 240 240 243 243 242 238 233 230 229 235 234 232 237 245 252 254 250 247 242
232 256 248 253 246 233 225 230 233 233 238 225 201 172 163 173 191 192 202 223 233 240 245 248 248 245 245 249 247 238 238 237 234 235 241 237 238 244 250 254 254 250 244
231 233 234 239 242 240 244 250 255 251 245 247 223 170 185 209 212 212 211 216 225 234 236 245 249 251 250 245 247 251 250 249 249 254 251 246 248 252 255 255 252 247 245
249 234 222 244 247 246 251 247 248 257 265 266 230 181 197 221 236 233 229 224 227 233 236 241 254 259 271 278 270 267 269 273 266 259 262 263 259 254 251 248 249 250 249
261 243 225 239 249 237 254 258 255 256 261 258 264 240 215 243 257 263 260 257 245 242 245 240 254 267 263 266 274 254 251 273 272 262 261 261 264 263 261 254 250 248 246
268 259 247 244 252 254 269 277 277 277 269 265 261 255 246 245 259 266 272 264 255 263 278 273 264 273 281 286 301 358 1 328 307 285 273 270 268 268 265 264 263 258 253
271 287 288 283 284 291 295 298 299 294 289 281 277 269 263 255 259 271 283 291 292 284 289 290 292 282 294 339 12 353 324 332 325 312 295 277 266 261 263 267 266 264 259
286 313 323 323 325 318 309 310 316 316 300 295 293 287 277 275 273 284 294 304 299 298 295 295 314 338 11 7 11 23 292 284 288 285 279 273 273 273 276 272 273 270 265